Grand Junction, CO

4:57 AM MDT on March 27, 2017 (GMT -0600)
Walker

Weather History for KGJT - April, 2014

Change the Weather History Date:

Monday, April 7, 2014

  Actual Average Record
Temperature  
Mean Temperature 46 °F 49 °F  
Max Temperature 61 °F 63 °F 82 °F (1930)
Min Temperature 30 °F 36 °F 23 °F (1938)
Degree Days  
Heating Degree Days 19 16  
Month to date heating degree days 140 116  
Since 1 July heating degree days 5730 5148  
Cooling Degree Days 0 0  
Month to date cooling degree days 0 0  
Year to date cooling degree days 0 0  
Moisture  
Dew Point 28 °F    
Average Humidity 59    
Maximum Humidity 92    
Minimum Humidity 25    
Precipitation  
Precipitation T in 0.04 in 0.63 in (1906)
Month to date precipitation 0.26 0.23  
Year to date precipitation 1.74 2.27  
Snow  
Snow 0.00 in 0.10 in 2.00 in (1975)
Month to date snowfall T 0.4  
Since 1 July snowfall 25.7 18.5  
Snow Depth 0.00 in    
Sea Level Pressure  
Sea Level Pressure 30.17 in    
Wind  
Wind Speed 6 mph (ESE)    
Max Wind Speed 16 mph    
Max Gust Speed 23 mph    
Visibility 10 miles    
Events      
T = Trace of Precipitation, MM = Missing Value Source: NWS Daily Summary

Daily Weather History Graph

Daily Weather History Graph

Search for Another Location

Airport or City:

Trip Planner

Search our weather history database for the weather conditions in past years. The results will help you decide how hot, cold, wet, or windy it might be!

Date:

Astronomy

Apr. 07, 2014 Rise Set
Actual Time 6:49 AM MDT 7:43 PM MDT
Civil Twilight 6:22 AM MDT 8:11 PM MDT
Nautical Twilight 5:49 AM MDT 8:43 PM MDT
Astronomical Twilight 5:16 AM MDT 9:16 PM MDT
Moon 12:49 PM MDT (4/7) 2:21 AM MDT (4/7)
Length of Visible Light 13h 48m
Length of Day
12h 54m
First Quarter, 54% of the Moon is Illuminated
Apr 7
First Quarter
Apr 15
Full
Apr 22
Last Quarter
Apr 29
New
May 6
First Quarter

Hourly Weather History & Observations

Time (MDT) Temp. Windchill Dew Point Humidity Pressure Visibility Wind Dir Wind Speed Gust Speed Precip Events Conditions
12:53 AM 36.0 °F 33.3 °F 32.0 °F 86% 30.12 in - NNE 3.5 mph - N/A   Clear
1:53 AM 39.0 °F 36.8 °F 33.1 °F 79% 30.10 in 10.0 mi North 3.5 mph - 0.00 in   Mostly Cloudy
2:53 AM 37.9 °F 35.5 °F 34.0 °F 86% 30.09 in 10.0 mi ENE 3.5 mph - 0.00 in   Overcast
3:53 AM 37.9 °F - 33.1 °F 83% 30.09 in 10.0 mi Calm Calm - N/A   Clear
4:53 AM 34.0 °F 29.8 °F 30.9 °F 89% 30.12 in - East 4.6 mph - N/A   Clear
5:53 AM 30.9 °F 26.2 °F 28.9 °F 92% 30.15 in - SE 4.6 mph - N/A   Clear
6:53 AM 32.0 °F - 30.0 °F 92% 30.17 in 10.0 mi Calm Calm - N/A   Clear
7:53 AM 35.1 °F 29.3 °F 30.9 °F 85% 30.22 in 10.0 mi ENE 6.9 mph - N/A   Clear
8:53 AM 39.0 °F 34.8 °F 34.0 °F 82% 30.23 in 10.0 mi WSW 5.8 mph - N/A   Clear
9:53 AM 44.1 °F - 34.0 °F 68% 30.24 in 10.0 mi Calm Calm - N/A   Partly Cloudy
10:53 AM 48.9 °F - 30.0 °F 48% 30.24 in 10.0 mi SW 5.8 mph - N/A   Partly Cloudy
11:53 AM 52.0 °F - 28.0 °F 40% 30.22 in 10.0 mi West 4.6 mph - N/A   Mostly Cloudy
12:53 PM 53.1 °F - 27.0 °F 37% 30.22 in 10.0 mi SE 6.9 mph - N/A   Mostly Cloudy
1:53 PM 54.0 °F - 26.1 °F 34% 30.19 in 10.0 mi ESE 10.4 mph 19.6 mph N/A   Mostly Cloudy
2:53 PM 57.0 °F - 25.0 °F 29% 30.17 in 10.0 mi Calm Calm - N/A   Partly Cloudy
3:53 PM 60.1 °F - 25.0 °F 26% 30.14 in 10.0 mi Variable 4.6 mph - N/A   Scattered Clouds
4:53 PM 59.0 °F - 24.1 °F 26% 30.14 in 10.0 mi SE 11.5 mph - N/A   Partly Cloudy
5:53 PM 59.0 °F - 24.1 °F 26% 30.14 in 10.0 mi East 8.1 mph - N/A   Clear
6:53 PM 57.9 °F - 23.0 °F 26% 30.15 in 10.0 mi East 6.9 mph - N/A   Clear
7:53 PM 50.0 °F - 25.0 °F 38% 30.18 in 10.0 mi SE 6.9 mph - N/A   Clear
8:53 PM 46.9 °F - 26.1 °F 44% 30.20 in 10.0 mi ENE 6.9 mph - N/A   Clear
9:53 PM 44.1 °F 40.8 °F 26.1 °F 49% 30.21 in 10.0 mi East 5.8 mph - N/A   Clear
10:53 PM 43.0 °F 38.2 °F 25.0 °F 49% 30.20 in 10.0 mi ESE 8.1 mph - N/A   Clear
11:53 PM 46.0 °F 40.6 °F 25.0 °F 44% 30.20 in 10.0 mi East 11.5 mph - N/A   Clear